Погода в Быхове

Беларусь     53°31′05″N   30°14′25″E
В апреле 2022 года жителям России запретили посещать сайт meteo.paraplan.net по решению Генеральной прокуратуры. Аудитория сайта уменьшилась в 10 раз. Владельцы сайта не видят смысла в поддержке погодного сервера в таких условиях. Сайт будет закрыт в октябре.
темп.,
°C
ветер,
м/с
пор.,
м/с
влажн.,
%
обл.,
%
осадки,
мм/ч
давл.,
гПа
погр.,
м
29 сентября, чт
чт2900:00+10св1296100 1.4 1001150
03:00+8з239881 1.6 100345
06:00+6юз35965 0.0 1005112
09:00+9ююз478598 0.0 1006230
12:00+14ююз6106978 0.0 1007683
15:00+15ю71166100 0.0 1007943
18:00+13ю4977100 0.0 1007394
21:00+13ю5127394 0.0 1008435
30 сентября, пт
пт3000:00+11ююв3791100 1.8 1009242
03:00+11ююз2492100 2.3 1009155
06:00+11сз2396100 0.4 1010119
09:00+11ссз349579 0.4 1012213
12:00+14сз337328 0.0 1013679
15:00+16сз226035 0.0 1014947
18:00+13ссз226846 0.0 101512
21:00+11св1174100 0.0 101610
1 октября, сб
сб100:00+11всв2273100 0.0 101624
03:00+10всв3687100 1.4 1015228
06:00+10св4798100 8.1 1014254
09:00+11в4798100 9.1 1012302
12:00+13зюз4689100 0.2 1012660
15:00+13з359399 0.2 1012520
18:00+11зсз3495100 0.3 1012377
21:00+10сз2395100 0.3 1012209
2 октября, вс
вс200:00+10ссз1295100 0.0 1012137
03:00+9ссз229537 0.0 101277
06:00+7св229728 0.0 101213
09:00+9всв2291100 0.0 1012143
12:00+12св237997 0.0 1011512
15:00+13ссв2275100 0.1 1011565
18:00+11с3587100 0.3 1010125
21:00+10с3693100 0.9 1010201
3 октября, пн
пн300:00+10ссв3696100 1.3 1009228
03:00+9с3796100 2.4 1008289
06:00+9ссз51095100 1.6 1004478
09:00+9ссз71294100 5.0 1002692
12:00+9ссз81394100 4.8 9991009
15:00+9сз101591100 9.0 9971012
18:00+8сз101692100 7.4 9951036
21:00+8сз101691100 11.1 993966